www.pogodaiklimat.ru

Погода и климат >> Архив погоды >> Россия >> Коми >> Елецкая


ПОГОДА в Елецкой

  • Прогноз погоды в Елецкой
  • Монитор погоды в Елецкой

АРХИВ ПОГОДЫ в Елецкой

Время (UTC), дата Ветер
(напр.,м/с)
 
Видим.   Явления Облачность Т
(С)
Тd
(С)
f
(%)
Тe
(С)
Тes
(С)
Комфортность P
(гПа)
Po
(гПа)
Тmin
(С)
Tmax
(С)
R
(мм)
R24
(мм)
S
(см)
00 16.04 С 13-17
{18}
н/о н/о -14.8 -16.5 87 -28 -28 1008.2 993.3
03 16.04 С 12-16
{18}
2000 м метель 10/6 630 м
[Sc Ac trans]
-16.4 -18.2 86 -30 -30 1012.4 997.3 -16.4 120
06 16.04 С 11-15
{16}
2000 м метель 10/5 600 м
[Sc Ac trans]
-17.2 -19.2 84 -30 -30 1017.8 1002.6 -17.2
09 16.04 С 11-15
{17}
2000 м метель 8/4 300 м
[Sc Ac lent Ci fib]
-16.7 -18.6 85 -30 -30 1022.0 1006.5
12 16.04 С 10-12
{16}
20 км сильный позёмок 8/3 600 м
[Sc Ci fib]
-15.4 -17.3 85 -28 -27 1025.2 1009.2
15 16.04 С 14-15
{18}
20 км сильный позёмок 8/4 600 м
[Sc Cs]
-16.9 -19.2 82 -31 -31 опасность
обморожения
1027.3 1011.9 -15.4
18 16.04 СЗ 4
{18}
50 км {метель} 6/3 600 м
[Sc Ci fib]
-19.0 -21.4 81 -28 -28 1029.8 1014.3
21 16.04 З 2 н/о н/о -22.2 -24.3 83 -28 -28 1030.8 1015.1
00 17.04 ЮЗ 2 н/о н/о -23.8 -26.2 81 -30 -30 1031.3 1015.4
03 17.04 ЮЗ 3 4000 м слаб. снег 10/5 600 м
[Sc As trans]
-21.3 -23.5 82 -29 -29 1031.0 1015.3 -24.1 0.2 119
06 17.04 ЮЗ 4 10 км слаб. снег 10/6 570 м
[Sc As op]
-17.4 -19.9 81 -26 -25 1028.7 1013.3
09 17.04 ЮЗ 5 10 км слаб. снег 9/4 600 м
[Sc As trans Ci fib]
-13.6 -16.2 81 -22 -21 1025.9 1010.7
12 17.04 ЮЗ 7
{11}
2000 м ливневой снег 10/10 500 м
[Cb cap]
-10.4 -12.0 88 -20 -20 1021.3 1006.4
15 17.04 ЮЗ 9-13
{14}
4000 м слаб. ливневой снег {метель} 10/10 300 м
[Cb cap]
-8.8 -10.0 91 -19 -19 1016.3 1001.6 -8.8 4
18 17.04 ЮЗ 7-11
{15}
4000 м слаб. ливневой снег {метель} 10/10 480 м
[Cb cap]
-7.0 -8.0 93 -16 -16 1012.1 997.5
21 17.04 З 5
{13}
н/о н/о -2.1 -2.8 95 -9 -9 1009.5 995.3
00 18.04 СЗ 5
{10}
н/о н/о -1.9 -2.1 99 -9 -9 1009.1 994.9
03 18.04 З 5
{10}
4000 м слаб. ливневой снег 10/10 480 м
[Cb cap]
-1.9 -2.1 99 -9 -9 1009.2 995.0 -8.7 120
06 18.04 СЗ 4 4000 м слаб. снег 10/10 360 м
[Frnb Ns]
-0.9 -1.7 94 -7 -7 1009.5 995.3
09 18.04 СЗ 2 4000 м слаб. снег 10/10 330 м
[Frnb Ns]
-0.2 -1.7 90 -4 -4 1011.5 997.3
12 18.04 З 4 20 км {снег} 10/8 700 м
[Sc Ac trans]
-0.9 -2.5 89 -7 -6 1012.6 998.4
15 18.04 З 4
{10}
20 км 10/10 720 м
[Sc]
-1.0 -2.1 92 -7 -7 1011.6 997.4 -0.2 0.9
18 18.04 З 5-10
{11}
20 км 10/8 700 м
[Sc Ac trans]
-1.3 -1.5 99 -8 -8 1010.6 996.4
21 18.04 З 6-10
{12}
н/о н/о -1.2 -1.4 99 -8 -8 1009.0 994.8
00 19.04 СЗ 3
{10}
н/о н/о -3.0 -3.9 93 -8 -8 1009.7 995.4
03 19.04 СЗ 3 20 км 8/8 700 м
[Cb cap Ci fib]
-5.6 -7.0 90 -11 -11 1011.4 996.9 -5.6 0.5
06 19.04 СЗ 3 20 км 10/5 600 м
[Sc Ac trans Ci fib]
-6.5 -9.1 82 -12 -11 1013.7 999.1 -6.5
09 19.04 СЗ 3 20 км 10/8 630 м
[Sc Ac trans]
-4.8 -7.6 81 -10 -10 1016.0 1001.5
12 19.04 З 4 20 км {ливн. осадки} 9/6 700 м
[Sc diur, vesp Ac trans]
-4.9 -7.5 82 -11 -11 1017.2 1002.7
15 19.04 З 2 20 км 10/5 600 м
[Sc Ac trans Ci fib]
-6.5 -9.1 82 -11 -11 1017.6 1003.0 -4.5 0.2
18 19.04 З 1 20 км 10/6 700 м
[Sc Ac trans]
-7.4 -9.1 88 -10 -10 1017.7 1003.0
21 19.04 ЮЗ 2 н/о н/о -7.2 -8.6 90 -12 -12 1017.2 1002.5
00 20.04 ЮЗ 2 н/о н/о -6.7 -7.9 91 -11 -11 1016.4 1001.7
03 20.04 ЮЗ 3 10 км слаб. снег 9/5 600 м
[Sc As trans]
-5.2 -6.7 89 -11 -10 1016.3 1001.8 -9.1 0.3 123
06 20.04 ЮЗ 4 4000 м слаб. снег 10/8 630 м
[Sc As op]
-3.1 -4.9 87 -9 -9 1015.4 1001.0
09 20.04 З 3 4000 м слаб. ливневой снег 10/8 570 м
[Cb cap Ac As]
+0.3 -1.2 90 -4 -4 1014.5 1000.3
12 20.04 З 3 4000 м слаб. ливневой снег 10/10 500 м
[Cb cap]
0.0 -0.8 94 -5 -5 1014.6 1000.4
15 20.04 З 4 4000 м слаб. ливневой снег 10/10 300 м
[Cb cap]
-0.5 -0.6 99 -6 -6 1013.7 999.5 +0.3 4
18 20.04 З 5
{10}
4000 м слаб. снег 10/6 540 м
[Sc As op]
-1.0 -1.0 100 -8 -8 1012.6 998.4
21 20.04 ЮЗ 4 н/о н/о -1.3 -1.3 100 -7 -7 1010.9 996.7
00 21.04 ЮЗ 7-10
{10}
н/о н/о -1.0 -1.1 99 -9 -9 1007.7 993.5
03 21.04 ЮЗ 6
{11}
4000 м слаб. снег 10/6 330 м
[Frnb As op]
-0.6 -0.6 100 -8 -8 1006.3 992.2 -1.3 3
06 21.04 З 5 4000 м слаб. дождь 10/8 300 м
[Frnb As op]
+0.5 +0.4 99 -6 -6 1007.0 992.9
09 21.04 З 5 20 км в посл. час дождь 10/6 500 м
[Sc As op]
+1.2 +0.1 92 -5 -4 1008.2 994.1
12 21.04 З 6 20 км {дождь} 10/6 540 м
[Sc Ac trans]
+1.2 +0.1 92 -5 -5 1010.7 996.2
15 21.04 З 3 4000 м слаб. ливневой снег 10/10 480 м
[Cb cap]
+0.2 +0.1 99 -5 -5 1009.9 995.8 +1.2 3
18 21.04 З 4 4000 м слаб. снег 10/8 240 м
[Frnb As op]
-0.1 -0.1 100 -6 -6 1009.0 994.8
21 21.04 ЮЗ 7-11
{11}
н/о н/о +0.2 +0.2 100 -7 -7 1006.7 992.6
00 22.04 ЮЗ 8-12
{12}
н/о н/о +0.2 +0.2 100 -8 -8 1004.1 990.1
03 22.04 З 4
{12}
4000 м слаб. морось 10/10 270 м
[St]
+0.9 +0.9 100 -5 -5 1003.0 989.0 -0.2 4 128
06 22.04 З 5 4000 м слаб. снег {морось} 10/10 300 м
[Frnb Ns]
+0.4 +0.4 100 -6 -6 1002.4 988.4
09 22.04 ЮЗ 6 4000 м {снег} 10/10 570 м
[Sc]
+0.8 +0.8 100 -6 -6 1001.6 987.6
12 22.04 ЮЗ 4
{10}
20 км {снег} 10/8 660 м
[Sc Ac trans]
+0.7 +0.6 99 -5 -5 1001.0 987.0
15 22.04 ЮЗ 5 10 км слаб. снег {морось} 10/5 600 м
[Sc As op]
+0.2 +0.1 99 -6 -6 1000.3 986.3 +1.0 2
18 22.04 З 6-12
{12}
20 км в посл. час снег {морось} 10/4 600 м
[Sc Ac trans]
+0.6 +0.4 99 -6 -6 999.3 985.3
21 22.04 СЗ 6 н/о н/о -1.4 -1.5 99 -9 -9 1000.2 986.1

 

Местоположение метеостанции Елецкая (Коми, Россия): широта 67.05 долгота 64.07 высота над уровнем моря 115 м.

В архиве по умолчанию представлена погода в Елецкой за последнюю неделю. Архивные данные за месяц целиком и за предыдущие месяцы, начиная с января 2011 года, Вы можете получить, выбрав интересующий диапазон дат из раскрывающегося списка и нажав кнопку "Ввод!".


*Определитесь, кто Вы:
робот инопланетянин человек

Внимание! Время в таблицах - всемирное. Для получения местного времени необходимо прибавить поправку, которая равна 3 ч.

Смотрите также архив погоды в соседних городах и на ближайших метеорологических станциях:

Погода в Воркуте (Коми, Россия) (48 км)
Погода в Харпе (Ямало-Ненецкий АО, Россия) (80 км)
Погода в Салехарде (Ямало-Ненецкий АО, Россия) (128 км)
Погода в Питляре (Ямало-Ненецкий АО, Россия) (159 км)
Погода в Петруни (Коми, Россия) (160 км)
Погода в Белоярске (Ямало-Ненецкий АО, Россия) (178 км)
Погода в Мужах (Ямало-Ненецкий АО, Россия) (188 км)
Погода в Харуте (Ненецкий АО, Россия) (199 км)
Погода в Полуе (Ямало-Ненецкий АО, Россия) (233 км)
Погода в Усть-Каре (Ненецкий АО, Россия) (247 км)

Пояснения к столбцам:

Ветер - указаны скорость ветра в м/с - средняя за 10 мин, порывы в срок и между сроками (в фигурных скобках) и направление, откуда дует ветер: С - северный, СВ - северо-восточный, В - восточный, ЮВ - юго-восточный, Ю - южный, ЮЗ - юго-западный, З - западный, СЗ - северо-западный.
Видимость - горизонтальная дальность видимости в метрах или километрах. При видимости от 1 до 10 км при отсутствии осадков обычно наблюдается дымка, при ухудшении видимости до 1 км и менее - туман. В сухую погоду видимость может ухудшаться дымом, пылью или мглою.
Явления - указаны атмосферные явления, наблюдавшиеся в срок или в последний час перед сроком; фигурными скобками обозначены явления, наблюдавшиеся между сроками (за 1-3 часа до срока); квадратными скобками обозначены град или гололедные отложения с указанием их диаметра в мм.
Облачность - указаны через наклонную черту общая и нижняя облачность в баллах и высота нижней границы облаков в метрах; квадратными скобками обозначены формы облаков: Ci - перистые, Cs - перисто-слоистые, Cc - перисто-кучевые, Ac - высококучевые, As - высокослоистые, Sc - слоисто-кучевые, Ns - слоисто-дождевые, Cu - кучевые, Cb - кучево-дождевые. Подробнее классификацию облаков см. в Атласе облаков (PDF).
T - Температура воздуха - температура, измеренная на высоте 2 м над землей.
Td - Температура точки росы - температура, при понижении до которой содержащийся в воздухе водяной пар достигнет насыщения.
f - Относительная влажность воздуха - влажноcть воздуха, измеренная на высоте 2 м над землей.
Te - Эффективная температура - температура, которую ощущает одетый по сезону человек в тени. Характеристика душности погоды. При расчете учитывается влияние влажности воздуха и скорости ветра на теплоощущения человека.
Tes - Эффективная температура на солнце - температура, которую ощущает человек, с поправкой на солнечный нагрев. Характеристика знойности погоды. Зависит от высоты солнца над горизонтом, облачности и скорости ветра. Ночью, в пасмурную погоду, а также при ветре 12 м/с и более поправка равна нулю.
P - Атмосферное давление - приведенное к уровню моря атмосферное давление.
Po - Атмосферное давление - измеренное на уровне метеостанции атмосферное давление.
Tmin - Минимальная температура - минимум температуры воздуха на высоте 2 м над землей.
Tmax - Максимальная температура - максимум температуры воздуха на высоте 2 м над землей.
R - Количество осадков - Количество выпавших осадков за период времени, мм. При наведении курсора мыши на число - период времени, за который выпало указанное количество осадков.
R24 - Количество осадков - Количество выпавших осадков за 24 часа, мм.
S - Снежный покров - Высота снежного покрова, см. При наведении курсора мыши на число - состояние снежного покрова и степень покрытия местности в баллах.